Regional Weather Roundup
Issued by NWS

Home | Current Version | Previous Version | Graphics & Text | Print | Product List | Glossary On
Versions: 1 2 3 4 5 6 7 8 9 10 11 12 13 14 15 16 17 18 19 20 21 22 23 24 25 26 27 28 29 30 31 32 33 34 35 36 37 38 39 40 41 42 43 44 45 46 47 48 49 50
000
ASUS43 KIND 182309
RWRIN

WEATHER ROUNDUP FOR INDIANA
NATIONAL WEATHER SERVICE INDIANAPOLIS IN
700 PM EDT FRI APR 18 2014

NOTE: "FAIR" INDICATES FEW OR NO CLOUDS BELOW 12,000 FEET WITH NO
SIGNIFICANT WEATHER AND/OR OBSTRUCTIONS TO VISIBILITY.

* - STATION DOES NOT REPORT WEATHER SUCH AS PRECIPITATION OR FOG.

+ - STATION NOT QUALITY CONTROLLED BY THE NATIONAL WEATHER SERVICE.
    USE DATA WITH CAUTION...ESPECIALLY DEWPOINT AND RELATIVE
    HUMIDITY OBSERVATIONS.

INZ001>003-010>013-019-020-190000-
NORTHWEST INDIANA

CITY           SKY/WX    TMP DP  RH WIND       PRES   REMARKS
GARY /AIRPORT/ MOSUNNY   43  34  70 NE12      30.35S
LA PORTE +     SUNNY     45  32  61 N14       30.32S
MICHIGAN CITY+ SUNNY     41  30  65 N8        30.34F
MONTICELLO +   SUNNY     62  36  38 N16       30.25S
RENSSELAER +   SUNNY     55  32  41 CALM      30.28S
VALPARAISO     SUNNY     46  34  62 N8        30.32S

$$

LMZ046-743>745-190000-
SOUTHERN LAKE MICHIGAN

STATION/POSITION TIME  TEMP WIND        PRES
                       AIR  DIR/SP/G
                 (UTC) (F)  (DEG/KT/KT) (MB)
MICHIGAN CITY    2300   37   20/ 18/ 20   N/A

$$

INZ004-005-014>016-021>024-190000-
NORTH CENTRAL INDIANA

CITY           SKY/WX    TMP DP  RH WIND       PRES   REMARKS
ELKHART        SUNNY     54  36  50 N10       30.30
GOSHEN         SUNNY     59  34  39 NW16      30.26S
LOGANSPORT +   SUNNY     61  32  33 N13       30.26R
PERU/GRISSOM   SUNNY     64  38  38 N15       30.24S
ROCHESTER +    SUNNY     61  34  36 N12       30.27S
SOUTH BEND     NOT AVBL
WARSAW +       SUNNY     59  34  38 N12       30.26S

$$

INZ006>009-017-018-025>027-190000-
NORTHEAST INDIANA

CITY           SKY/WX    TMP DP  RH WIND       PRES   REMARKS
ANGOLA *+      SUNNY     63  36  36 NW13      30.24S
AUBURN +       SUNNY     63  30  29 W14       30.24S
FORT WAYNE     MOSUNNY   65  36  34 NW13      30.23F

$$

INZ028-029-035-036-043>045-051>053-190000-
WEST CENTRAL INDIANA

CITY           SKY/WX    TMP DP  RH WIND       PRES   REMARKS
GREENCASTLE +  SUNNY     66  39  37 NW9       30.22S
LAFAYETTE      SUNNY     64  38  38 N12G21    30.24R
TERRE HAUTE    SUNNY     68  40  35 N5        30.22S

$$

INZ030>032-037>040-046>048-054>057-064-065-190000-
CENTRAL INDIANA

CITY           SKY/WX    TMP DP  RH WIND       PRES   REMARKS
CP ATTERBURY + SUNNY     68  36  30 NW5       30.21S
FISHERS *+     SUNNY     66  37  34 NW9       30.22
INDIANAPOLIS   MOSUNNY   66  39  37 N12       30.21F
-EAGLE CREEK   SUNNY     66  38  35 N9        30.22S
KOKOMO *+        N/A    N/A N/A N/A MISG        N/A
MARION +       SUNNY     65  35  32 NW10      30.23F
MT COMFORT *+  SUNNY     66  41  39 NW7       30.22S
SHELBYVILLE    PTSUNNY   71  39  31 N8        30.20F
ZIONSVILLE +   SUNNY     66  35  31 NW8       30.23S

$$

INZ033-034-041-042-049-050-058-059-190000-
EAST CENTRAL INDIANA

CITY           SKY/WX    TMP DP  RH WIND       PRES   REMARKS
MUNCIE         SUNNY     65  39  38 NW14      30.22S

$$

INZ060-061-067>069-081>083-085>088-190000-
SOUTHWEST INDIANA

CITY           SKY/WX    TMP DP  RH WIND       PRES   REMARKS
EVANSVILLE     SUNNY     72  39  30 NW7       30.20S
HUNTINGBURG *+ SUNNY     70  43  37 N9        30.19F
WASHINGTON +   SUNNY     67  45  44 N5        30.19F

$$

INZ062-063-066-070>080-084-089>092-190000-
SOUTH CENTRAL AND SOUTHEAST INDIANA

CITY           SKY/WX    TMP DP  RH WIND       PRES   REMARKS
BLOOMINGTON    SUNNY     63  42  46 N7        30.20F
SEYMOUR +        N/A     68  19  15 N5        30.19

$$




USA.gov is the U.S. government's official web portal to all federal, state and local government web resources and services.